Regional Weather Roundup
Issued by NWS

Home | Current Version | Previous Version | Graphics & Text | Print | Product List | Glossary On
Versions: 1 2 3 4 5 6 7 8 9 10 11 12 13 14 15 16 17 18 19 20 21 22 23 24 25 26 27 28 29 30 31 32 33 34 35 36 37 38 39 40 41 42 43 44 45 46 47 48 49 50
000
ASUS43 KIND 272309
RWRIN

WEATHER ROUNDUP FOR INDIANA
NATIONAL WEATHER SERVICE INDIANAPOLIS IN
700 PM EDT TUE JUN 27 2017

NOTE: "FAIR" INDICATES FEW OR NO CLOUDS BELOW 12,000 FEET WITH NO
SIGNIFICANT WEATHER AND/OR OBSTRUCTIONS TO VISIBILITY.

* - STATION DOES NOT REPORT WEATHER SUCH AS PRECIPITATION OR FOG.

+ - STATION NOT QUALITY CONTROLLED BY THE NATIONAL WEATHER SERVICE.
    USE DATA WITH CAUTION...ESPECIALLY DEWPOINT AND RELATIVE
    HUMIDITY OBSERVATIONS.

INZ001>003-010>013-019-020-280000-
NORTHWEST INDIANA

CITY           SKY/WX    TMP DP  RH WIND       PRES   REMARKS
GARY /AIRPORT/ MOSUNNY   75  45  33 NE7       30.05F
KNOX *+        SUNNY     72  34  25 CALM      30.06F
LA PORTE +     SUNNY     72  43  34 NW3       30.08F
MICHIGAN CITY+ SUNNY     72  43  35 CALM      30.07F
MONTICELLO +   SUNNY     73  44  36 W5        30.06F
RENSSELAER +   SUNNY     73  34  23 SW9       30.06F
VALPARAISO     PTSUNNY   74  46  36 S6        30.06F

$$

LMZ046-743>745-280000-
SOUTHERN LAKE MICHIGAN

STATION/POSITION TIME  TEMP    WIND        PRES    WAVE
                       AIR SEA DIR/SP/G            HT
                 (UTC) (F)     (DEG/KT/KT) (MB)    (FT)
BURNS HARBOR     2240   70      50/  9/ 12 1018.3F
MICHIGAN CITY    2240   68      40/  7/  7   N/A
5NW MICH CITY    2300   68 67   90/  6/  6   N/A     1

$$

INZ004-005-014>016-021>024-280000-
NORTH CENTRAL INDIANA

CITY           SKY/WX    TMP DP  RH WIND       PRES   REMARKS
ELKHART        SUNNY     72  41  33 W5        30.07F
GOSHEN         SUNNY     71  40  32 W12       30.06F
LOGANSPORT +   SUNNY     70  48  46 SW9       30.08F
PERU/GRISSOM   SUNNY     70  50  48 SW6       30.06F
ROCHESTER +    SUNNY     73  43  33 N6        30.07F
SOUTH BEND     SUNNY     71  42  35 NW5       30.07F
WARSAW +       SUNNY     70  43  37 NW7       30.07F

$$

INZ006>009-017-018-025>027-280000-
NORTHEAST INDIANA

CITY           SKY/WX    TMP DP  RH WIND       PRES   REMARKS
ANGOLA *+      SUNNY     72  64  78 W9        30.05F
AUBURN +       MOSUNNY   72  43  35 W6        30.07F
FORT WAYNE     MOSUNNY   73  47  39 W8        30.08S
HUNTINGTON +   MOSUNNY   69  48  46 W8        30.07F
KENDALLVILLE + MOSUNNY   72  44  35 NW5       30.07F

$$

INZ028-029-035-036-043>045-051>053-280000-
WEST CENTRAL INDIANA

CITY           SKY/WX    TMP DP  RH WIND       PRES   REMARKS
CRAWFORDSVL +  SUNNY     70  46  41 CALM      30.09F
GREENCASTLE +  SUNNY     72  45  37 CALM      30.09F
LAFAYETTE      SUNNY     71  48  43 S3        30.07F
TERRE HAUTE    SUNNY     75  46  35 CALM      30.08F

$$

INZ030>032-037>040-046>048-054>057-064-065-280000-
CENTRAL INDIANA

CITY           SKY/WX    TMP DP  RH WIND       PRES   REMARKS
COLUMBUS       MOSUNNY   72  39  30 CALM      30.09F
FRANKFORT +    CLOUDY    74  47  37 CALM      30.10F
GREENWOOD *+   SUNNY     73  41  32 CALM      30.10F
INDIANAPOLIS   MOSUNNY   73  47  39 W3        30.09F
-EAGLE CREEK   SUNNY     73  44  35 VRB3      30.09F
KOKOMO +       SUNNY     73  47  39 W6        30.09F
MT COMFORT *+  SUNNY     73  45  35 N3        30.10F
SHELBYVILLE    SUNNY     75  45  34 VRB5      30.08F
ZIONSVILLE +   SUNNY     70  45  40 SW5       30.10F

$$

INZ033-034-041-042-049-050-058-059-280000-
EAST CENTRAL INDIANA

CITY           SKY/WX    TMP DP  RH WIND       PRES   REMARKS
MUNCIE         SUNNY     72  44  36 W5        30.09F
RICHMOND +     SUNNY     68  45  42 W7        30.11F

$$

INZ060-061-067>069-081>083-085>088-280000-
SOUTHWEST INDIANA

CITY           SKY/WX    TMP DP  RH WIND       PRES   REMARKS
EVANSVILLE     SUNNY     78  50  37 NE6       30.08S
HUNTINGBURG *+ SUNNY     75  52  44 CALM      30.08F
WASHINGTON +   SUNNY     76  38  25 CALM      30.07F

$$

INZ062-063-066-070>080-084-089>092-280000-
SOUTH CENTRAL AND SOUTHEAST INDIANA

CITY           SKY/WX    TMP DP  RH WIND       PRES   REMARKS
BEDFORD +      SUNNY     75  41  29 NW3       30.08F
BLOOMINGTON    SUNNY     74  45  35 W5        30.09F
MADISON *+     SUNNY     73  41  31 NW5       30.11F
NORTH VERNON + SUNNY     72  46  40 CALM      30.10F
SEYMOUR +      SUNNY     77  48  36 CALM      30.08F

$$




USA.gov is the U.S. government's official web portal to all federal, state and local government web resources and services.